This is the latest recevied weather packets stored in our database for station/object DG9MHV-10. If no packets are shown the sender has not sent any weather packets the latest 10 day(s).
| Time | Temp. | Humidity | Pressure | Rain* | Wind** | Luminosity | Snow |
|---|---|---|---|---|---|---|---|
| 1777529474 | 12.78° C | 48% | 1026.1 hPa | - | - | - | - |
| 1777528574 | 12.78° C | 50% | 1026 hPa | - | - | - | - |
| 1777527674 | 12.78° C | 53% | 1025.9 hPa | - | - | - | - |
| 1777526774 | 11.11° C | 72% | 1026 hPa | - | - | - | - |
| 1777525874 | 9.44° C | 86% | 1026 hPa | - | - | - | - |
| 1777524974 | 7.78° C | 100% | 1025.8 hPa | - | - | - | - |
| 1777524074 | 6.11° C | 100% | 1025.9 hPa | - | - | - | - |
| 1777523174 | 2.78° C | 100% | 1025.9 hPa | - | - | - | - |
| 1777522274 | 2.22° C | 100% | 1025.7 hPa | - | - | - | - |
| 1777521374 | 2.22° C | 100% | 1025.5 hPa | - | - | - | - |
| 1777520474 | 2.78° C | 100% | 1025.7 hPa | - | - | - | - |
| 1777519574 | 2.78° C | 100% | 1025.7 hPa | - | - | - | - |
| 1777518674 | 2.78° C | 100% | 1025.6 hPa | - | - | - | - |
| 1777517773 | 3.33° C | 100% | 1025.5 hPa | - | - | - | - |
| 1777516873 | 3.33° C | 100% | 1025.6 hPa | - | - | - | - |
| 1777515973 | 3.89° C | 100% | 1025.4 hPa | - | - | - | - |
| 1777515073 | 3.89° C | 100% | 1025.5 hPa | - | - | - | - |
| 1777514177 | 3.89° C | 100% | 1025.4 hPa | - | - | - | - |
| 1777513273 | 4.44° C | 100% | 1025.3 hPa | - | - | - | - |
| 1777512373 | 4.44° C | 100% | 1025.2 hPa | - | - | - | - |
| 1777511473 | 4.44° C | 100% | 1025.3 hPa | - | - | - | - |
| 1777510573 | 4.44° C | 100% | 1025.2 hPa | - | - | - | - |
| 1777509673 | 5° C | 100% | 1025 hPa | - | - | - | - |
| 1777508773 | 5° C | 100% | 1025.1 hPa | - | - | - | - |
| 1777507873 | 5° C | 100% | 1025.1 hPa | - | - | - | - |
* Rain since midnight (hover to see other rain measurements)
** Current wind speed in m/s (hover to see current wind gust speed)